Wind_Speed
32 34 34 34 37 38 41 44 45 45 47 51 54 55 55 55 55 57 58 58 57 56 55 53 52 51 50 48 46 44 42 41 40 39 37 36 35 34 32 31 31 29 28 27
32 32 32 35 37 38 40 43 45 45 46 50 54 56 55 57 56 56 58 59 58 57 57 56 53 52 51 50 48 46 45 42 41 39 38 37 36 35 34 33 31 30 29 28
31 30 32 34 36 39 40 41 43 45 46 49 52 56 55 56 57 57 58 59 59 58 58 57 55 54 52 51 50 48 46 44 42 41 40 39 38 36 34 33 32 31 30 30
30 30 32 34 35 38 39 39 42 44 47 49 50 55 54 54 56 56 57 58 59 58 58 57 56 55 53 52 51 49 47 45 44 43 42 40 38 36 34 34 33 32 31 30
28 29 32 32 32 36 36 38 41 43 45 49 50 54 53 52 55 55 55 56 58 58 58 57 57 55 54 53 52 51 49 47 46 45 43 41 39 37 36 35 34 33 32 31
28 28 30 31 32 34 35 36 40 42 44 49 47 51 54 51 51 52 54 55 56 58 58 57 57 57 55 54 53 52 51 49 48 46 44 43 40 39 38 36 35 34 33 32
26 26 28 30 32 33 35 35 38 41 44 47 44 49 51 48 47 49 51 53 55 56 58 58 58 58 57 55 54 53 52 51 49 47 46 44 42 41 39 38 37 35 34 33
25 24 26 27 29 31 33 35 36 39 42 44 44 47 47 46 46 48 49 52 55 56 58 59 58 58 58 56 54 54 53 51 49 48 46 44 43 42 41 39 38 36 35 34
26 24 23 26 28 30 31 32 33 36 39 41 44 45 44 43 45 46 49 51 54 56 57 58 59 59 59 58 56 54 53 52 50 48 47 46 44 43 41 40 39 38 37 36
25 25 23 25 27 29 30 30 32 34 37 39 42 43 42 41 42 44 47 49 51 54 56 57 58 59 59 58 57 55 54 52 50 49 48 47 45 44 42 41 40 39 38 37
25 26 24 25 25 27 28 30 31 33 36 38 41 42 38 37 39 42 44 47 49 52 55 56 56 56 58 58 57 56 55 53 51 50 48 47 45 44 43 42 40 39 39 38
23 24 23 24 25 27 29 30 31 32 34 37 39 40 36 35 36 38 41 44 47 50 53 54 55 56 57 58 57 56 55 54 52 51 49 48 46 45 44 43 42 40 39 39
22 23 23 23 24 27 29 30 32 33 34 35 37 37 35 35 34 36 39 43 45 47 51 53 55 56 57 57 57 57 55 54 53 52 50 49 48 46 45 44 43 42 41 39
22 24 24 24 23 25 29 30 32 35 36 36 36 34 35 36 36 36 39 42 44 45 48 51 53 55 56 56 56 56 55 54 53 53 51 49 48 47 45 44 43 42 41 41
24 26 26 25 25 26 27 29 31 33 34 35 33 33 34 36 37 37 39 41 42 44 46 49 51 53 53 54 54 54 54 53 53 52 52 49 47 46 45 45 44 43 42 42
25 26 26 25 25 27 27 27 29 31 32 33 33 32 32 36 36 38 39 40 42 44 46 48 50 50 51 51 53 53 53 52 52 51 50 50 49 47 46 45 44 44 43 42
24 26 27 27 25 27 27 24 25 29 31 33 34 31 32 35 36 37 38 39 40 43 45 47 49 50 49 50 52 52 52 51 51 51 50 50 49 47 46 45 44 43 42 42
24 24 26 26 26 27 23 22 23 26 30 33 34 33 34 35 36 36 37 37 38 41 44 47 48 49 48 49 50 51 51 51 51 51 50 49 49 48 46 45 44 43 41 40
23 23 24 24 25 26 23 21 22 25 28 31 32 32 34 35 36 36 37 37 37 39 44 47 48 49 48 49 50 51 51 50 50 50 49 49 48 47 46 45 43 41 40 38
22 23 24 25 26 26 21 21 24 26 28 29 30 31 33 35 36 35 37 37 38 38 41 45 46 48 48 49 49 50 51 50 50 50 49 48 47 46 45 44 41 40 38 37
22 23 24 25 26 25 20 22 25 27 27 28 31 31 32 34 35 35 37 36 36 38 39 43 44 47 48 48 48 48 49 49 49 49 48 47 47 46 44 43 41 39 39 38
24 23 23 24 25 24 21 22 25 27 28 30 31 31 32 34 36 37 37 36 36 38 39 41 44 46 47 47 47 47 47 48 48 48 48 47 46 45 43 42 40 39 39 37
25 25 25 26 25 24 24 24 25 27 29 31 33 33 33 34 36 37 37 36 36 39 40 41 42 44 45 47 47 46 47 48 48 48 47 46 45 44 42 41 40 38 37 36
25 26 28 28 26 26 26 26 26 27 29 31 32 33 34 35 36 38 38 36 36 38 38 40 42 43 43 44 45 46 47 48 48 47 46 45 43 42 41 40 38 37 35 34
25 27 28 28 26 28 27 27 27 28 29 31 32 32 33 35 37 38 38 37 35 37 38 39 40 40 41 42 43 45 46 47 47 46 46 44 43 41 40 38 37 36 35 33
23 25 27 26 25 26 25 27 28 29 30 31 32 32 33 34 36 38 39 38 37 37 38 39 40 39 40 41 42 43 44 45 45 45 44 43 42 41 40 38 36 35 34 33
Wind_Direction
260 255 252 251 249 248 245 241 238 234 233 233 232 230 227 226 226 224 221 221 222 222 221 221 220 220 219 218 218 219 220 220 222 223 223 225 227 229 231 232 234 237 240 244
262 256 253 250 248 246 243 241 238 235 234 235 233 230 227 226 226 224 222 220 221 221 221 220 220 219 219 219 218 219 220 220 222 223 223 224 226 228 229 232 234 237 240 244
263 257 252 250 248 246 243 242 240 238 235 236 236 232 228 227 226 225 223 221 220 221 221 220 220 220 219 219 219 219 220 221 222 223 223 224 226 228 230 233 235 238 241 245
263 255 253 250 248 246 244 243 243 240 239 236 235 235 227 227 226 225 223 221 221 221 221 221 220 220 219 219 219 219 220 221 222 223 223 225 227 229 232 234 236 238 241 244
265 256 252 250 246 245 245 243 243 242 242 239 234 237 228 226 226 224 223 222 222 222 221 221 221 221 220 219 219 219 220 221 222 223 223 225 227 228 231 234 236 239 241 244
265 258 255 251 245 245 245 244 243 242 242 241 235 239 232 225 225 225 224 223 222 222 221 221 221 221 221 220 218 218 219 221 222 223 224 226 228 230 232 235 238 240 242 244
265 258 255 251 247 244 243 241 242 241 241 240 236 239 235 226 225 225 224 224 224 223 221 220 220 220 221 221 220 219 220 221 223 224 226 227 229 231 233 235 238 240 242 245
270 260 254 251 249 243 241 240 240 242 242 241 238 239 234 229 226 225 224 223 223 222 221 220 219 219 220 221 221 221 221 222 223 225 226 228 229 231 234 236 238 240 242 245
274 264 254 251 247 243 240 241 241 242 243 243 240 237 233 229 227 224 223 223 222 221 220 219 219 219 220 220 220 221 221 222 223 225 227 228 230 232 234 237 240 241 243 245
275 267 256 250 245 241 242 241 239 240 242 245 242 236 233 231 228 225 223 222 222 222 220 218 218 219 220 220 221 221 221 222 224 225 227 229 231 233 235 237 240 242 244 246
274 270 259 249 242 238 237 238 238 240 242 245 245 238 234 234 229 225 223 221 220 220 220 219 217 218 219 220 221 222 222 222 223 225 227 229 231 233 235 236 239 242 245 247
271 272 263 251 242 238 237 236 237 239 241 243 246 239 232 234 229 225 223 221 220 220 219 219 218 218 218 219 221 222 222 223 223 225 227 229 231 233 235 236 238 241 244 247
269 270 267 257 248 242 240 237 238 238 241 241 243 238 231 231 227 224 222 219 219 219 218 218 218 218 219 219 220 222 223 223 223 224 226 229 230 232 234 236 238 241 243 247
267 267 266 262 255 248 242 240 239 238 241 242 241 238 229 228 224 220 219 218 217 218 217 217 218 219 219 219 220 221 222 223 224 224 226 228 230 231 233 235 238 240 243 246
263 265 264 260 257 251 245 242 241 240 242 244 242 239 229 225 222 219 218 217 216 217 217 216 216 218 219 219 218 219 221 222 223 224 226 228 230 231 232 234 236 239 242 245
265 265 262 260 257 253 248 244 241 241 242 242 241 235 227 224 222 219 217 216 215 216 216 214 214 215 217 219 218 218 219 221 222 223 224 227 229 231 233 235 237 238 241 244
265 265 264 262 259 256 251 247 245 241 241 241 239 234 229 224 222 219 216 213 214 213 213 213 213 213 215 217 218 218 219 220 221 223 224 226 228 230 232 234 236 238 241 244
266 265 265 263 259 255 253 249 245 241 238 238 239 234 229 224 221 219 216 212 211 210 209 211 212 212 214 216 217 218 218 219 220 222 224 226 228 229 230 233 236 238 240 243
265 263 264 265 263 259 253 250 245 240 235 235 236 232 229 225 221 219 217 214 211 209 207 208 210 211 212 215 216 217 217 218 219 221 223 224 226 228 230 232 233 235 239 242
264 260 261 263 267 265 256 249 243 241 239 234 233 231 229 227 223 218 216 213 211 209 206 206 207 209 211 213 215 215 216 217 218 220 221 223 224 226 228 230 231 234 236 240
262 259 259 262 266 267 258 251 244 242 239 234 233 230 227 225 222 218 216 213 211 211 208 206 207 208 210 211 213 214 215 215 217 218 219 220 221 223 225 227 231 233 235 239
262 260 259 262 266 268 261 253 245 242 238 235 231 229 226 224 222 219 217 215 214 213 209 208 208 208 210 212 212 213 214 214 215 217 218 219 220 222 224 226 228 232 235 238
260 260 259 260 263 264 261 257 250 243 239 234 230 228 226 224 222 221 219 217 216 214 211 209 207 208 211 212 212 213 213 214 215 216 217 218 219 220 222 225 228 232 236 239
260 258 259 261 262 262 260 255 250 243 237 233 230 227 225 224 223 221 220 219 217 215 214 213 209 209 211 212 213 214 212 212 213 214 215 216 218 220 223 225 228 231 235 238
262 262 262 261 261 258 254 252 248 242 238 234 230 227 225 224 223 221 219 218 217 216 215 213 210 210 210 211 213 213 212 211 211 212 213 214 217 219 222 224 228 231 235 238
262 262 261 261 259 256 252 249 246 241 236 233 230 227 224 223 222 221 219 217 216 215 214 213 212 210 209 210 210 210 210 210 210 211 212 215 217 219 221 225 228 231 234 237
Height
5572 5574 5575 5577 5579 5582 5585 5588 5593 5600 5603 5605 5610 5617 5626 5634 5640 5649 5658 5666 5675 5684 5693 5701 5708 5715 5723 5730 5738 5744 5751 5756 5762 5767 5773 5777 5782 5786 5789 5793 5796 5799 5801 5803
5563 5565 5567 5567 5568 5570 5573 5577 5582 5588 5591 5593 5598 5604 5612 5620 5628 5638 5647 5655 5665 5673 5681 5690 5698 5705 5713 5721 5729 5736 5743 5749 5755 5761 5766 5771 5775 5778 5782 5786 5789 5792 5795 5797
5554 5557 5556 5556 5558 5560 5563 5568 5573 5576 5580 5581 5585 5591 5600 5610 5617 5626 5635 5645 5654 5663 5672 5680 5688 5696 5704 5712 5720 5728 5734 5741 5747 5753 5758 5763 5767 5771 5776 5780 5783 5786 5789 5791
5545 5547 5546 5546 5549 5550 5554 5559 5561 5564 5567 5571 5575 5578 5590 5598 5606 5615 5625 5635 5644 5653 5662 5670 5678 5686 5695 5704 5711 5719 5726 5732 5738 5744 5750 5756 5761 5766 5770 5774 5777 5779 5782 5784
5536 5536 5536 5538 5540 5541 5545 5548 5550 5553 5555 5559 5564 5566 5577 5586 5594 5605 5616 5625 5634 5643 5652 5660 5669 5677 5686 5694 5701 5709 5716 5722 5729 5736 5742 5748 5754 5759 5762 5766 5769 5772 5775 5778
5527 5526 5526 5529 5531 5533 5535 5538 5540 5542 5543 5546 5555 5556 5563 5577 5587 5597 5606 5614 5623 5632 5641 5650 5659 5666 5674 5682 5691 5698 5706 5713 5720 5727 5734 5740 5746 5750 5754 5758 5762 5765 5768 5771
5519 5519 5518 5519 5521 5524 5525 5528 5530 5531 5532 5537 5546 5545 5555 5570 5579 5586 5594 5603 5611 5619 5628 5637 5646 5655 5663 5671 5680 5689 5697 5704 5711 5718 5725 5732 5737 5742 5746 5751 5755 5758 5761 5764
5510 5511 5511 5511 5512 5514 5517 5519 5522 5523 5525 5531 5535 5536 5550 5560 5567 5573 5581 5589 5597 5605 5615 5625 5635 5644 5652 5661 5670 5679 5687 5695 5702 5709 5716 5723 5728 5733 5738 5743 5747 5750 5753 5756
5500 5503 5504 5504 5504 5506 5508 5510 5514 5516 5517 5520 5523 5531 5540 5547 5555 5562 5569 5577 5585 5594 5603 5613 5623 5632 5641 5650 5660 5669 5677 5685 5693 5700 5707 5713 5719 5724 5730 5734 5738 5742 5745 5748
5493 5494 5496 5496 5497 5498 5501 5503 5506 5506 5508 5510 5515 5522 5530 5539 5546 5553 5559 5567 5575 5584 5592 5601 5611 5621 5630 5640 5649 5658 5666 5675 5683 5690 5697 5703 5709 5715 5721 5725 5729 5733 5737 5739
5486 5486 5488 5488 5489 5491 5493 5496 5497 5499 5501 5504 5507 5516 5524 5530 5537 5544 5550 5557 5564 5573 5582 5591 5600 5610 5620 5629 5638 5647 5656 5664 5672 5680 5687 5693 5700 5706 5711 5716 5720 5724 5728 5731
5479 5479 5479 5481 5483 5483 5485 5488 5490 5492 5494 5496 5498 5508 5516 5520 5526 5533 5540 5547 5555 5562 5570 5580 5589 5598 5607 5617 5626 5635 5645 5653 5662 5670 5677 5683 5690 5696 5701 5707 5711 5715 5719 5722
5473 5473 5473 5474 5477 5477 5478 5480 5482 5484 5486 5488 5490 5499 5507 5511 5516 5523 5530 5538 5545 5552 5560 5569 5578 5587 5596 5606 5615 5625 5634 5643 5651 5659 5666 5673 5679 5686 5692 5697 5702 5706 5710 5713
5466 5466 5467 5468 5468 5469 5471 5473 5474 5475 5477 5479 5484 5490 5499 5503 5508 5514 5520 5528 5536 5543 5550 5559 5567 5577 5586 5595 5605 5614 5623 5632 5640 5648 5656 5663 5670 5676 5682 5687 5692 5697 5701 5704
5459 5459 5459 5460 5460 5461 5463 5465 5467 5468 5470 5472 5478 5482 5490 5495 5499 5505 5511 5518 5526 5534 5541 5549 5558 5567 5576 5585 5594 5604 5613 5621 5630 5638 5646 5654 5660 5666 5672 5677 5682 5687 5691 5695
5453 5452 5452 5453 5454 5453 5454 5457 5459 5461 5464 5466 5469 5474 5481 5486 5491 5496 5502 5509 5517 5525 5533 5541 5549 5558 5567 5576 5584 5594 5602 5611 5619 5627 5636 5643 5650 5656 5662 5668 5673 5677 5681 5685
5446 5446 5446 5446 5447 5445 5447 5452 5453 5455 5457 5459 5461 5468 5473 5477 5482 5488 5494 5501 5508 5516 5524 5532 5540 5549 5558 5566 5575 5583 5592 5601 5609 5617 5625 5632 5639 5645 5652 5657 5662 5667 5672 5675
5439 5439 5438 5438 5439 5438 5445 5444 5445 5447 5449 5451 5454 5459 5463 5468 5474 5480 5486 5493 5500 5507 5515 5522 5531 5539 5548 5556 5565 5573 5582 5590 5599 5607 5615 5622 5629 5636 5642 5647 5653 5658 5662 5665
5432 5432 5432 5431 5430 5431 5436 5438 5438 5439 5442 5444 5447 5451 5456 5461 5466 5472 5479 5485 5492 5499 5506 5514 5521 5530 5538 5547 5555 5563 5572 5580 5588 5597 5604 5612 5619 5626 5632 5638 5643 5648 5652 5656
5426 5425 5426 5425 5424 5424 5431 5431 5431 5432 5434 5438 5440 5444 5448 5453 5459 5466 5471 5477 5484 5491 5498 5505 5513 5521 5529 5537 5545 5554 5562 5571 5579 5587 5595 5602 5609 5616 5623 5629 5634 5638 5643 5647
5419 5418 5419 5418 5417 5418 5423 5423 5424 5426 5429 5431 5433 5436 5440 5445 5452 5458 5463 5470 5476 5483 5490 5497 5505 5513 5521 5529 5537 5545 5554 5562 5570 5577 5585 5592 5599 5606 5613 5619 5624 5629 5633 5637
5411 5411 5412 5411 5411 5414 5416 5415 5416 5418 5420 5422 5425 5429 5433 5438 5443 5449 5455 5461 5468 5475 5482 5489 5497 5505 5512 5520 5529 5537 5546 5553 5561 5568 5576 5583 5590 5597 5603 5609 5615 5620 5624 5628
5404 5404 5404 5405 5406 5407 5407 5407 5408 5410 5411 5414 5417 5421 5425 5430 5436 5442 5448 5454 5461 5468 5474 5481 5489 5497 5504 5512 5520 5529 5537 5544 5552 5559 5567 5574 5582 5588 5595 5601 5606 5611 5616 5620
5396 5396 5395 5395 5397 5398 5399 5399 5401 5402 5403 5406 5409 5413 5417 5422 5428 5434 5440 5447 5454 5460 5467 5474 5481 5489 5497 5504 5512 5520 5528 5535 5543 5551 5559 5566 5573 5580 5586 5592 5598 5603 5607 5612
5388 5387 5386 5387 5389 5389 5390 5391 5392 5393 5395 5398 5401 5405 5409 5414 5420 5426 5433 5440 5446 5452 5459 5466 5474 5481 5489 5496 5504 5511 5519 5527 5535 5543 5551 5558 5565 5572 5578 5584 5590 5595 5600 5604
5380 5378 5378 5378 5380 5379 5381 5382 5383 5385 5387 5390 5393 5397 5402 5407 5412 5418 5425 5432 5439 5446 5452 5459 5466 5474 5482 5489 5496 5504 5511 5519 5527 5535 5543 5551 5557 5564 5570 5576 5581 5586 5591 5595